CUTE-1 (CO-55) 1 27844U 03031E 26071.02261069 .00000398 00000+0 19112-3 0 9990 2 27844 98.6778 80.7924 0010724 106.4257 253.8101 14.24268276177840 CUBESAT XI-IV (CO-57) 1 27848U 03031J 26070.96261917 .00000335 00000+0 16614-3 0 9993 2 27848 98.6809 80.5238 0010458 122.8454 237.3733 14.23563030177540 CUBESAT XI-V 1 28895U 05043F 26071.29835986 .00002382 00000+0 38432-3 0 9997 2 28895 98.2837 224.9716 0014865 149.6421 210.5650 14.72333809 87490 CUTE-1.7+APD II (CO-65) 1 32785U 08021C 26071.23435268 .00007547 00000+0 48874-3 0 9991 2 32785 97.8202 50.7517 0009307 10.2062 349.9352 15.08411899970579 CANX-2 1 32790U 08021H 26070.90145570 .00005044 00000+0 36128-3 0 9993 2 32790 97.8550 48.8906 0011054 21.5805 338.5884 15.04819790970171 SEEDS II (CO-66) 1 32791U 08021J 26071.21140208 .00022266 00000+0 78696-3 0 9993 2 32791 97.7516 64.7464 0001026 347.7797 12.3417 15.29206375972458 SWISSCUBE 1 35932U 09051B 26071.28304171 .00001503 00000+0 30783-3 0 9991 2 35932 98.4095 337.4721 0007259 144.9164 215.2516 14.62267918874993 BEESAT-1 1 35933U 09051C 26070.62691475 .00001233 00000+0 25835-3 0 9997 2 35933 98.4026 336.6404 0005442 157.4534 202.6906 14.61538394874934 ITUPSAT1 1 35935U 09051E 26071.21803242 .00001146 00000+0 24744-3 0 9993 2 35935 98.4111 336.5331 0007443 170.1513 189.9834 14.60274470874580 TISAT 1 1 36799U 10035E 26071.24601399 .00024672 00000+0 91072-3 0 9995 2 36799 98.0641 9.5412 0001731 159.0175 201.1134 15.27760952852882 AEROCUBE 4.5A 1 38767U 12048K 26071.22014407 .00104681 00000+0 11063-2 0 9994 2 38767 64.6384 11.2506 0040602 210.9643 148.9109 15.62583443357385 STRAND-1 1 39090U 13009E 26070.93161707 .00000415 00000+0 15417-3 0 9993 2 39090 98.3891 253.5676 0009156 155.3231 204.8396 14.37096984683095 BRITE-AUSTRIA 1 39091U 13009F 26071.04246863 .00000263 00000+0 10409-3 0 9991 2 39091 98.3959 252.8911 0010512 164.2421 195.9095 14.36497696683105 NEE-01 PEGASO 1 39151U 13018B 26071.31379422 .00004022 00000+0 39092-3 0 9992 2 39151 98.1047 212.3838 0013707 121.9767 238.2786 14.93115511696242 POPACS 2 1 39269U 13055E 26070.93064206 .00028651 00000+0 49672-3 0 9990 2 39269 80.9896 255.2811 0430258 145.6975 217.2849 14.87956944648732 POPACS 3 1 39270U 13055F 26070.74447657 .00016574 00000+0 39983-3 0 9991 2 39270 81.0051 334.6981 0559808 6.4850 354.3199 14.54042429624382 ZACUBE-1 (TSHEPISOSAT) 1 39417U 13066B 26070.86428305 .00004555 00000+0 36106-3 0 9998 2 39417 97.8163 32.6993 0042776 212.7065 147.1509 15.00350239666138 WNISAT-1 1 39423U 13066H 26071.30779278 .00002193 00000+0 40669-3 0 9998 2 39423 97.7045 227.4252 0163719 176.6209 183.6139 14.57884607652618 TRITON-1 1 39427U 13066M 26071.30576971 .00002647 00000+0 32368-3 0 9998 2 39427 97.8284 343.3357 0090328 189.1327 170.8247 14.81213598659748 GOMX-1 1 39430U 13066Q 26071.27676258 .00001993 00000+0 30561-3 0 9993 2 39430 97.6571 277.8205 0130119 29.2656 331.5759 14.69109182655686 CUBEBUG-2 (LO-74) 1 39440U 13066AA 26071.31146423 .00006385 00000+0 59986-3 0 9997 2 39440 97.8804 19.9884 0058317 350.2516 9.7567 14.92991850662537 NEE-02 KRYSAOR 1 39441U 13066AB 26070.86918500 .00003061 00000+0 34098-3 0 9995 2 39441 97.8812 10.8501 0067587 30.0215 330.4848 14.86180202661743 FUNCUBE-1 (AO-73) 1 39444U 13066AE 26071.29535176 .00008749 00000+0 56408-3 0 9997 2 39444 97.8189 40.8783 0037634 169.9501 190.2488 15.07963578665057 UWE-3 1 39446U 13066AG 26071.13730778 .00005347 00000+0 46857-3 0 9995 2 39446 97.8588 26.6785 0048236 283.6953 75.8900 14.96210545663063 BRITE-CA1 (TORONTO) 1 40020U 14033L 26071.27927017 .00001748 00000+0 27079-3 0 9995 2 40020 97.9571 202.0936 0077992 226.5128 132.9578 14.72473185627954 DUCHIFAT-1 1 40021U 14033M 26071.08851585 .00054836 00000+0 96975-3 0 9998 2 40021 98.0638 117.7991 0005905 78.6004 281.5908 15.50132800640640 NANOSATC-BR1 1 40024U 14033Q 26071.01251443 .00017748 00000+0 64734-3 0 9990 2 40024 98.0848 94.9823 0004797 143.2232 216.9335 15.28222169639126 QB50P1 1 40025U 14033R 26071.28324816 .00011198 00000+0 57641-3 0 9997 2 40025 98.1009 75.7412 0008612 185.5694 174.5443 15.16581521638337 QB50P2 1 40032U 14033Y 26070.91091815 .00009398 00000+0 52508-3 0 9990 2 40032 98.0738 61.8555 0008812 136.2338 223.9592 15.13718506637949 PERSEUS-M2 1 40037U 14033AD 26071.30390122 .00002404 00000+0 22424-3 0 9997 2 40037 97.9861 19.9556 0010507 261.3208 98.6822 14.95171995636300 PERSEUS-M1 1 40039U 14033AF 26071.28389240 .00002148 00000+0 20046-3 0 9998 2 40039 97.9551 13.9040 0010197 258.6656 101.3419 14.95266657636158 POLYITAN-1 1 40042U 14033AJ 26071.02934453 .00019670 00000+0 68528-3 0 9991 2 40042 98.1049 88.3242 0009482 121.4432 238.7734 15.29669708638723 TIGRISAT 1 40043U 14033AK 26071.28568917 .00002793 00000+0 32859-3 0 9994 2 40043 97.7677 223.6190 0050205 33.9715 326.4698 14.84743793631243 AEROCUBE 6A 1 40045U 14033AM 26071.00310200 .00007057 00000+0 61087-3 0 9999 2 40045 97.7131 239.1133 0038548 342.3304 17.6574 14.96882251632076 AEROCUBE 6B 1 40046U 14033AN 26070.69697162 .00007332 00000+0 61258-3 0 9995 2 40046 97.7126 238.4096 0037443 335.2630 24.6795 14.98270104632159 CANX-4 1 40055U 14034C 26071.21069547 .00001370 00000+0 18377-3 0 9995 2 40055 98.3273 302.8952 0012186 328.0575 31.9896 14.81069251630175 CANX-5 1 40056U 14034D 26071.21024007 .00001361 00000+0 18256-3 0 9994 2 40056 98.3275 302.9324 0012143 328.3215 31.7264 14.81085890620981 UKUBE-1 1 40074U 14037F 26071.19861929 .00011560 00000+0 67981-3 0 9997 2 40074 98.4235 64.4159 0003060 108.8791 251.2768 15.11854011633897 BRITE-PL2 (HEWELIUSZ) 1 40119U 14049B 26071.28481855 .00002307 00000+0 22040-3 0 9992 2 40119 97.8979 182.6300 0015267 73.1369 287.1524 14.94198864626979 AEROCUBE 5C 1 40965U 15058B 26070.79143063 .00004375 00000+0 39104-3 0 9999 2 40965 64.7676 205.4464 0130517 101.6506 259.9288 14.90878115351133 AEROCUBE 7 1 40966U 15058C 26070.59051980 .00005638 00000+0 45942-3 0 9994 2 40966 64.7626 190.3194 0120436 100.7469 260.7231 14.94923254351360 FOX-1A (AO-85) 1 40967U 15058D 26070.80677933 .00004385 00000+0 39876-3 0 9998 2 40967 64.7750 221.4687 0128838 95.0586 266.5247 14.90376295 99051 SINOD-D 1 1 40968U 15058E 26070.98099494 .00005108 00000+0 41903-3 0 9996 2 40968 64.7757 203.1296 0117194 92.2545 269.1994 14.95083623102125 SNAP-3 ALICE 1 40970U 15058G 26071.29573158 .00067641 00000+0 14297-2 0 9993 2 40970 64.7557 74.5419 0037144 67.5525 292.9540 15.44019486101853 LMRST-SAT 1 40971U 15058H 26070.73772805 .00004360 00000+0 39835-3 0 9997 2 40971 64.7754 217.8404 0130909 97.0397 264.5623 14.90008827 99037 SNAP-3 EDDIE 1 40972U 15058J 26071.29077453 .00073179 00000+0 14891-2 0 9995 2 40972 64.7481 65.9339 0038130 72.8700 287.6608 15.45056920103983 PROPCUBE 3 1 40973U 15058K 26070.74079837 .00005117 00000+0 43090-3 0 9994 2 40973 64.7686 196.8268 0123435 98.7951 262.7164 14.93552604100243 BISONSAT 1 40974U 15058L 26071.26737001 .00011101 00000+0 57524-3 0 9994 2 40974 64.7599 126.4565 0078936 89.4445 271.5723 15.13862438100933 SNAP-3 JIMI 1 40975U 15058M 26070.56361977 .00006973 00000+0 49363-3 0 9995 2 40975 64.7657 168.3825 0105442 95.6563 265.6589 15.01166460 99565 PROPCUBE 1 (FLORA) 1 40976U 15058N 26070.87241619 .00004106 00000+0 39046-3 0 9993 2 40976 64.7737 236.7063 0130014 99.2811 262.3030 14.88658993101771 SINOD-D 3 1 40977U 15058P 26070.75446594 .00005846 00000+0 50005-3 0 9990 2 40977 64.7722 219.8864 0118377 97.2803 264.1784 14.93238556100202 HORYU-4 1 41340U 16012D 26070.63764773 .00098481 00000+0 10189-2 0 9990 2 41340 30.9918 54.3852 0003454 170.9196 189.1520 15.63295409555410 RAVAN 1 41849U 16067B 26071.23198394 .00039626 00000+0 80021-3 0 9990 2 41849 98.0043 310.2093 0005846 357.0239 3.0972 15.46385830512677 CELTEE 1 1 41850U 16067C 26070.59324526 .00006857 00000+0 33491-3 0 9997 2 41850 98.0814 290.4964 0001164 132.3150 227.8181 15.18624022511064 OPTICUBE 04 1 41851U 16067D 26071.29471997 .00002978 00000+0 19116-3 0 9999 2 41851 98.0815 278.4849 0017233 85.9773 274.3424 15.09207914510559 AEROCUBE 8D 1 41852U 16067E 26071.15904920 .00009426 00000+0 40486-3 0 9991 2 41852 98.0829 293.9725 0004815 105.7243 254.4523 15.22926071511293 AEROCUBE 8C 1 41853U 16067F 26071.19905876 .00009095 00000+0 38807-3 0 9993 2 41853 98.0700 291.3716 0006353 46.4192 313.7570 15.23153072511292 CORVUS BC2 1 42846U 17042X 26070.98709278 .00003973 00000+0 27876-3 0 9997 2 42846 97.3956 236.2161 0014722 85.9691 274.3219 15.05628729472433 CORVUS BC1 1 42847U 17042Y 26071.25911044 .00004299 00000+0 29972-3 0 9996 2 42847 97.3989 237.2247 0013364 64.2447 296.0158 15.05840039472507 MAKERSAT 0 1 43016U 17073D 26070.60154021 .00024430 00000+0 73717-3 0 9996 2 43016 97.4780 312.5869 0114999 259.0136 99.8150 15.27901644451544 SIRION PATHFINDER-2 1 43759U 18099B 26071.09773248 .00005937 00000+0 33432-3 0 9992 2 43759 97.4386 122.4675 0007394 276.2296 83.8094 15.13571266397931 CORVUS BC4 1 43767U 18099K 26071.17466866 .00004990 00000+0 29702-3 0 9998 2 43767 97.4207 116.9887 0007764 348.0636 12.0409 15.11645334397741 M2 PATHFINDER 1 45727U 20037E 26071.07407627 .00003839 00000+0 28054-3 0 9990 2 45727 97.8169 261.2210 0012517 119.4610 240.7866 15.04198847310890 NETSAT-4 1 46504U 20068U 26070.99435642 .00018940 00000+0 46883-3 0 9995 2 46504 97.8644 71.6686 0004191 327.7706 32.3283 15.40481459300791 NETSAT-3 1 46505U 20068V 26070.92175943 .00019840 00000+0 51279-3 0 9999 2 46505 97.8680 69.9454 0004710 350.1490 9.9661 15.39148488300703 NETSAT-1 1 46506U 20068W 26070.97096366 .00015498 00000+0 50187-3 0 9998 2 46506 97.8751 65.4103 0005465 12.3843 347.7530 15.32115481300407 NETSAT-2 1 46507U 20068X 26070.94591535 .00024065 00000+0 57116-3 0 9993 2 46507 97.8658 71.2259 0004097 16.0228 344.1146 15.41704655300736 GREENCUBE (IO-117) 1 53109U 22080E 26068.42135005 -.00000003 00000+0 00000+0 0 9994 2 53109 70.1625 332.9478 0009111 310.9057 49.0813 6.42583076 85654 SITRO-AIS 5 (KATYS) 1 57176U 23091L 26071.30108131 .00014047 00000+0 52865-3 0 9998 2 57176 97.5177 134.3937 0013355 87.1545 273.1222 15.27153067149540 SITRO-AIS 6 (CHIRKIN) 1 57192U 23091AC 26071.27390476 .00007450 00000+0 30559-3 0 9993 2 57192 97.5181 133.9517 0014174 88.0355 272.2505 15.24451691149513 SITRO-AIS 8 (ANOKHIN) 1 57193U 23091AD 26071.27929676 .00016244 00000+0 56982-3 0 9993 2 57193 97.5169 135.5972 0012449 84.7535 275.5125 15.29443576149623 SITRO-AIS 7 (FARTUSHNIY) 1 57194U 23091AE 26071.32451844 .00007419 00000+0 30663-3 0 9999 2 57194 97.5181 133.8725 0014049 88.7360 271.5487 15.24199608149517 SITRO-AIS 10 (BURDAEV) 1 57199U 23091AK 26071.29533769 .00021229 00000+0 62854-3 0 9999 2 57199 97.5180 139.7529 0008007 67.2480 292.9609 15.34875076149884 SITRO-AIS 9 (SHCHUKIN) 1 57201U 23091AM 26071.29419589 .00020402 00000+0 61144-3 0 9999 2 57201 97.5180 139.5496 0008243 66.8782 293.3328 15.34497190149870 SITRO-AIS 12 (SMIRENNIY) 1 57204U 23091AQ 26071.23689154 .00021326 00000+0 63410-3 0 9997 2 57204 97.5192 139.9014 0007863 62.6201 297.5841 15.34740154149881 SITRO-AIS 11 (SHEFFER) 1 57208U 23091AU 26071.27468853 .00022065 00000+0 64873-3 0 9991 2 57208 97.5190 140.1314 0007680 62.0457 298.1562 15.35089663149906 SITRO-AIS 25 1 59066U 24039R 26071.26742191 .00004664 00000+0 37140-3 0 9999 2 59066 95.3931 168.5187 0145129 307.2253 51.5802 14.92654016110267 SITRO-AIS 26 1 59067U 24039S 26071.32318263 .00004348 00000+0 34789-3 0 9991 2 59067 95.3930 168.4737 0145470 307.5014 51.3059 14.92467001110262 SITRO-AIS 27 1 59068U 24039T 26071.31983463 .00004219 00000+0 33493-3 0 9999 2 59068 95.3933 168.6998 0144579 306.3266 52.4682 14.92862691110282 SITRO-AIS 28 1 59071U 24039U 26071.29951837 .00004078 00000+0 32370-3 0 9996 2 59071 95.3937 168.7279 0144370 306.2967 52.4995 14.92899284110284 GRBBETA 1 60237U 24128C 26070.56650685 .00006387 00000+0 43975-3 0 9995 2 60237 61.9903 198.5617 0051211 114.4871 246.1575 15.05821671 91568 OOV-CUBE (TUBSAT-30) 1 60240U 24128F 26070.69296120 .00003983 00000+0 30664-3 0 9993 2 60240 61.9948 205.4050 0054328 112.7565 247.9280 15.02269830 91464 ROBUSTA-3A (MEDITERRAN*) 1 60243U 24128J 26071.31319479 .00010936 00000+0 65881-3 0 9994 2 60243 61.9864 190.4297 0051488 108.5635 252.1063 15.10140756 91781 LASARSAT 1 62391U 24247Q 26070.76068962 .00034505 00000+0 84216-3 0 9999 2 62391 44.9761 87.2220 0002044 57.7340 302.3746 15.40320823 68266 CROCUBE 1 62394U 24247T 26071.30732167 .00037005 00000+0 86728-3 0 9996 2 62394 44.9728 82.7711 0001899 43.8053 316.2986 15.41515658 68365